Regional Weather Roundup
Issued by NWS

Home | Current Version | Previous Version | Graphics & Text | Print | Product List | Glossary On
Versions: 1 2 3 4 5 6 7 8 9 10 11 12 13 14 15 16 17 18 19 20 21 22 23 24 25 26 27 28 29 30 31 32 33 34 35 36 37 38 39 40 41 42 43 44 45 46 47 48 49 50
000
ASUS43 KLSX 301759
RWRMO

WEATHER SUMMARY FOR MISSOURI
NATIONAL WEATHER SERVICE SPRINGFIELD MO
100 PM CDT SUN APR 30 2017

NOTE: "FAIR" INDICATES FEW OR NO CLOUDS BELOW 12,000 FEET WITH NO
       SIGNIFICANT WEATHER AND/OR OBSTRUCTIONS TO VISIBILITY.
       CURRENT SKY AND/OR WEATHER CONDITIONS ARE NOT AVAILABLE FOR
       CHILLICOTHE AND FARMINGTON.

MOZ001>031-035>038-043-044-053-054-301900-
...NORTHERN AND WESTERN MISSOURI...

CITY           SKY/WX    TMP DP  RH WIND       PRES   REMARKS
KANSAS CTY INT LGT RAIN  52  50  93 SE10      29.49F FOG
6HR MIN TEMP:  43; 6HR MAX TEMP:  52; 6HR PCP:  0.18;

KANSAS C DTWN  LGT RAIN N/A N/A N/A CALM      29.50S
                                      6HR PCP:  0.07;

LEE`S SUMMIT   LGT RAIN  54  53  97 SW17G26   29.50F
6HR MIN TEMP:  45; 6HR MAX TEMP:  55; 6HR PCP:  0.31;

ST JOSEPH      LGT RAIN  49  49 100 CALM      29.51F FOG
6HR MIN TEMP:  42; 6HR MAX TEMP:  49; 6HR PCP:  0.22;

CHILLICOTHE      N/A     51  49  92 E8G22     29.51F
6HR MIN TEMP:  44; 6HR MAX TEMP:  51; 6HR PCP:  0.40;

KIRKSVILLE     CLOUDY    47  32  56 E21G30    29.54F
6HR MIN TEMP:  45; 6HR MAX TEMP:  47; 6HR PCP:  0.29;


$$
MOZ066>068-077>081-088>096-101>105-301900-
...SOUTHWEST MISSOURI...

CITY           SKY/WX    TMP DP  RH WIND       PRES   REMARKS
SPRINGFIELD    PTSUNNY   63  54  72 SW20G31   29.53F
6HR MIN TEMP:  63; 6HR MAX TEMP:  69; 6HR PCP:  0.08;

JOPLIN         CLOUDY    57  48  72 S25       29.54F
6HR MIN TEMP:  54; 6HR MAX TEMP:  61; 6HR PCP: TRACE;

BRANSON        PTSUNNY   66  54  63 S10G22    29.57F

$$
MOZ032>034-039>042-045>050-055>058-069>072-301900-
...CENTRAL MISSOURI...

CITY           SKY/WX    TMP DP  RH WIND       PRES   REMARKS
COLUMBIA       CLOUDY    66  64  93 SE17G24   29.50F
6HR MIN TEMP:  55; 6HR MAX TEMP:  66; 6HR PCP:  0.21;

JEFFERSON CITY CLOUDY    70  64  81 SE18G25   29.50F
6HR MIN TEMP:  58; 6HR MAX TEMP:  70; 6HR PCP:  0.31;

ROLLA          CLOUDY    66  50  56 SE14G24   29.54F
6HR MIN TEMP:  61; 6HR MAX TEMP:  66; 6HR PCP:  0.52;

SEDALIA        CLOUDY    68  65  90 S15       29.50S
6HR MIN TEMP:  58; 6HR MAX TEMP:  68; 6HR PCP:  0.13;

WHITEMAN AFB   DRIZZLE   55  55 100 SW18G24   29.50R
OSAGE BEACH    CLOUDY    70  66  87 S12       29.50F

$$
MOZ051-052-059>065-301900-
...EAST CENTRAL MISSOURI...

CITY           SKY/WX    TMP DP  RH WIND       PRES   REMARKS
ST LOUIS INTL  LGT RAIN  65  62  90 E23       29.66F
6HR MIN TEMP:  53; 6HR MAX TEMP:  65; 6HR PCP:  0.76;

SPIRIT OF STL  CLOUDY    65  64  97 E12G17    29.63F
6HR MIN TEMP:  55; 6HR MAX TEMP:  65; 6HR PCP:  0.67;

ST CHARLES     CLOUDY    63  63 100 SE17      29.66F
6HR MIN TEMP:  53; 6HR MAX TEMP:  64; 6HR PCP:  0.54;


$$
MOZ072>076-082>087-097>100-106>115-301900-
...SOUTH CENTRAL AND SOUTHEAST MISSOURI...

CITY           SKY/WX    TMP DP  RH WIND       PRES   REMARKS
CAPE GIRARDEAU CLOUDY    67  64  90 E6        29.69F
6HR MIN TEMP:  64; 6HR MAX TEMP:  68;

FARMINGTON     CLOUDY    68  65  90 SE18G26   29.66F
6HR MIN TEMP:  62; 6HR MAX TEMP:  68; 6HR PCP:  0.98;

POPLAR BLUFF   CLOUDY    70  68  93 SE10      29.65F
6HR MIN TEMP:  64; 6HR MAX TEMP:  70; 6HR PCP:  0.63;


$$



USA.gov is the U.S. government's official web portal to all federal, state and local government web resources and services.